User: anonymous
Location: SAPM � Hemmingford
(45.0500°N, 73.5833°W)
Time: 16:25:44
(UTC-04:00)
Language:

Iridium 75 - Orbit

View from above orbital plane
View from above orbital plane
View from above satellite
View from above satellite

Ground track
Ground track

The orbit data is extracted from the following two-line orbital elements,

1 25346U 98032E   14232.33354707  .00000244  00000-0  79959-4 0  9382
2 25346 086.3961 295.3952 0002355 110.4826 295.6047 14.34216639851777
Epoch (UTC): 20 August 2014 08:00:18
Eccentricity: 0.0002355
inclination: 86.3961°
perigee height: 776 km
apogee height: 779 km
right ascension of ascending node: 295.3952°
argument of perigee: 110.4826°
revolutions per day: 14.34216639
mean anomaly at epoch: 295.6047°
orbit number at epoch: 85177

The dashed part of the orbit path shows where the satellite is in the earth's shadow,  

DLR